| time (UTC) | temp C | wind direction | speed KPH | gust KPH | rain 1hr cm | rain 24hr cm | rain mn cm | humidity % | barometer mb |
| 20260504150932 | 5 | 321 | 0.0 | 0.0 | 0.15 | 0.23 | 0.25 | 87 | 1004.1 |
| 20260504140924 | 5 | 321 | 0.0 | 0.0 | 0.10 | 0.10 | 0.10 | 81 | 1003.9 |
| 20260504080855 | 1 | 321 | 0.0 | 3.2 | 0.00 | 0.00 | 0.00 | 77 | 1004.3 |
| 20260504045350 | 3 | 321 | 0.0 | 0.0 | 0.00 | 0.00 | 0.00 | 68 | 1004.9 |
| 20260504043847 | 3 | 321 | 1.6 | 6.4 | 0.00 | 0.00 | 0.00 | 67 | 1005.1 |
| 20260504042346 | 3 | 321 | 0.0 | 0.0 | 0.00 | 0.00 | 0.00 | 67 | 1005.2 |
| 20260504040846 | 3 | 321 | 0.0 | 0.0 | 0.00 | 0.00 | 0.00 | 67 | 1005.2 |
| 20260504033848 | 4 | 321 | 0.0 | 0.0 | 0.00 | 0.00 | 0.00 | 66 | 1005.2 |
| 20260504032343 | 4 | 321 | 0.0 | 0.0 | 0.00 | 0.00 | 0.00 | 65 | 1005.2 |
| 20260504030843 | 4 | 321 | 0.0 | 0.0 | 0.00 | 0.00 | 0.00 | 65 | 1005.2 |
| 20260504023838 | 5 | 321 | 0.0 | 0.0 | 0.00 | 0.00 | 0.00 | 63 | 1005.4 |
| 20260504022339 | 5 | 321 | 0.0 | 0.0 | 0.00 | 0.00 | 0.00 | 63 | 1005.4 |
| 20260504020840 | 5 | 321 | 0.0 | 0.0 | 0.00 | 0.00 | 0.00 | 61 | 1005.3 |
| 20260504015339 | 6 | 321 | 0.0 | 0.0 | 0.00 | 0.00 | 0.00 | 60 | 1005.2 |
| 20260504013835 | 6 | 321 | 0.0 | 0.0 | 0.00 | 0.00 | 0.00 | 59 | 1005.2 |
| 20260504012335 | 6 | 320 | 0.0 | 0.0 | 0.00 | 0.00 | 0.00 | 58 | 1005.2 |
| 20260504010833 | 6 | 320 | 0.0 | 0.0 | 0.00 | 0.00 | 0.00 | 58 | 1005.2 |
| 20260504003827 | 7 | 320 | 0.0 | 0.0 | 0.00 | 0.00 | 0.00 | 54 | 1005.0 |
| 20260504002327 | 8 | 320 | 0.0 | 0.0 | 0.00 | 0.00 | 0.00 | 51 | 1005.0 |
| 20260504000826 | 8 | 320 | 0.0 | 1.6 | 0.00 | 0.00 | 0.00 | 48 | 1004.9 |
| 20260503235325 | 8 | 320 | 1.6 | 8.0 | 0.00 | 0.00 | 0.00 | 48 | 1004.8 |
| 20260503233824 | 8 | 320 | 1.6 | 9.7 | 0.00 | 0.00 | 0.00 | 47 | 1004.8 |
| 20260503232321 | 8 | 323 | 3.2 | 17.7 | 0.00 | 0.00 | 0.00 | 46 | 1004.7 |
| 20260503230822 | 9 | 299 | 6.4 | 19.3 | 0.00 | 0.00 | 0.00 | 45 | 1004.7 |
| 20260503223823 | 9 | 325 | 6.4 | 17.7 | 0.00 | 0.00 | 0.00 | 43 | 1004.8 |
| 20260503222322 | 10 | 327 | 6.4 | 20.9 | 0.00 | 0.00 | 0.00 | 44 | 1004.8 |
| 20260503220823 | 10 | 323 | 8.0 | 19.3 | 0.00 | 0.00 | 0.00 | 42 | 1004.8 |
| 20260503215322 | 10 | 306 | 6.4 | 19.3 | 0.00 | 0.00 | 0.00 | 44 | 1004.8 |
| 20260503213822 | 10 | 324 | 8.0 | 24.1 | 0.00 | 0.00 | 0.00 | 44 | 1004.9 |
| 20260503210821 | 10 | 331 | 4.8 | 17.7 | 0.00 | 0.00 | 0.00 | 43 | 1004.8 |
| 20260503205320 | 10 | 296 | 9.7 | 20.9 | 0.00 | 0.00 | 0.00 | 44 | 1004.9 |
| 20260503195318 | 10 | 303 | 9.7 | 24.1 | 0.00 | 0.00 | 0.00 | 43 | 1004.9 |
| 20260503193818 | 10 | 288 | 9.7 | 22.5 | 0.00 | 0.00 | 0.00 | 44 | 1004.9 |
| 20260503192319 | 10 | 292 | 6.4 | 19.3 | 0.00 | 0.00 | 0.00 | 44 | 1005.0 |
| 20260503190818 | 10 | 281 | 9.7 | 27.4 | 0.00 | 0.00 | 0.00 | 44 | 1005.0 |
| 20260503185319 | 10 | 306 | 8.0 | 17.7 | 0.00 | 0.00 | 0.00 | 44 | 1004.9 |
| 20260503183818 | 10 | 292 | 9.7 | 22.5 | 0.00 | 0.00 | 0.00 | 44 | 1005.1 |
| 20260503182318 | 10 | 300 | 8.0 | 20.9 | 0.00 | 0.00 | 0.00 | 42 | 1005.1 |
| 20260503175314 | 10 | 275 | 9.7 | 24.1 | 0.00 | 0.00 | 0.00 | 43 | 1005.3 |
| 20260503172314 | 10 | 270 | 8.0 | 25.7 | 0.00 | 0.00 | 0.00 | 44 | 1005.5 |